When you browse on this site, cookies collect data to enhance your experience and personalize the content and advertising you see.
Visit our Privacy Policy to learn more. By continuing to use the site, you agree to this use of cookies and data.
  • In Hungary
  • List of Countries
  • For 7 days
  • Water Temperature
  • Weather Map
  • News
  • Weather Widgets
  • user-avatar
    Login

    Hourly Weather Twin Falls

    Today, 21 November, Thursday

    Time Temperature Precipitation Wind Pressure Humidity
    00:00 +1°C° 0 mm 5 mps 659 mmHg 50%
    01:00 +1°C° 0 mm 5 mps 659 mmHg 48%
    02:00 0°C° 0 mm 4 mps 659 mmHg 51%
    03:00 0°C° 0 mm 4 mps 659 mmHg 55%
    04:00 0°C° 0 mm 3 mps 660 mmHg 58%
    05:00 0°C° 0 mm 3 mps 659 mmHg 59%
    06:00 -1°C° 0 mm 2 mps 659 mmHg 60%
    07:00 -2°C° 0 mm 2 mps 659 mmHg 61%
    08:00 +1°C° 0 mm 2 mps 660 mmHg 54%
    09:00 +2°C° 0 mm 3 mps 660 mmHg 48%
    10:00 +3°C° 0 mm 3 mps 661 mmHg 42%
    11:00 +4°C° 0 mm 3 mps 661 mmHg 41%
    12:00 +5°C° 0 mm 3 mps 661 mmHg 39%
    13:00 +7°C° 0 mm 3 mps 661 mmHg 38%
    14:00 +6°C° 0 mm 2 mps 661 mmHg 41%
    15:00 +5°C° 0 mm 2 mps 661 mmHg 44%
    16:00 +6°C° 0 mm 1 mps 661 mmHg 47%
    17:00 +5°C° 0 mm 1 mps 661 mmHg 53%
    18:00 +3°C° 0 mm 1 mps 661 mmHg 58%
    19:00 +2°C° 0 mm 1 mps 661 mmHg 64%
    20:00 +2°C° 0 mm 1 mps 661 mmHg 67%
    21:00 +1°C° 0 mm 1 mps 662 mmHg 70%
    22:00 0°C° 0 mm 0 mps 662 mmHg 73%
    23:00 0°C° 0 mm 0 mps 662 mmHg 74%

    Tomorrow, 22 November, Friday

    Time Temperature Precipitation Wind Pressure Humidity
    00:00 -1°C° 0 mm 0 mps 662 mmHg 75%
    01:00 -1°C° 0 mm 0 mps 662 mmHg 75%
    02:00 -1°C° 0 mm 0 mps 662 mmHg 76%
    03:00 0°C° 0 mm 1 mps 663 mmHg 76%
    04:00 0°C° 0 mm 1 mps 663 mmHg 77%
    05:00 0°C° 0 mm 1 mps 663 mmHg 76%
    06:00 0°C° 0 mm 1 mps 664 mmHg 76%
    07:00 0°C° 0 mm 1 mps 664 mmHg 76%
    08:00 +3°C° 0 mm 1 mps 665 mmHg 66%
    09:00 +5°C° 0 mm 1 mps 666 mmHg 56%
    10:00 +7°C° 0 mm 2 mps 667 mmHg 46%
    11:00 +8°C° 0 mm 3 mps 666 mmHg 43%
    12:00 +8°C° 0 mm 3 mps 666 mmHg 40%
    13:00 +8°C° 0 mm 4 mps 666 mmHg 37%
    14:00 +8°C° 0 mm 3 mps 666 mmHg 42%
    15:00 +6°C° 0 mm 2 mps 665 mmHg 47%
    16:00 +5°C° 0 mm 2 mps 665 mmHg 51%
    17:00 +5°C° 0 mm 1 mps 665 mmHg 56%
    18:00 +4°C° 0 mm 1 mps 665 mmHg 61%
    19:00 +3°C° 0 mm 1 mps 666 mmHg 65%
    20:00 +2°C° 0 mm 1 mps 666 mmHg 66%
    21:00 +2°C° 0 mm 1 mps 666 mmHg 68%
    22:00 +2°C° 0 mm 1 mps 666 mmHg 69%
    23:00 +1°C° 0 mm 1 mps 666 mmHg 70%

    Day after tomorrow, 23 November, Saturday

    Time Temperature Precipitation Wind Pressure Humidity
    00:00 +1°C° 0 mm 1 mps 666 mmHg 71%
    01:00 +1°C° 0 mm 1 mps 666 mmHg 72%
    02:00 +1°C° 0 mm 1 mps 666 mmHg 72%
    03:00 +1°C° 0 mm 1 mps 666 mmHg 72%
    04:00 +1°C° 0 mm 1 mps 666 mmHg 72%
    05:00 +1°C° 0 mm 1 mps 667 mmHg 72%
    06:00 0°C° 0 mm 1 mps 667 mmHg 73%
    07:00 0°C° 0 mm 1 mps 667 mmHg 73%
    08:00 +3°C° 0 mm 1 mps 668 mmHg 63%
    09:00 +6°C° 0 mm 1 mps 669 mmHg 53%
    10:00 +8°C° 0 mm 2 mps 670 mmHg 42%
    11:00 +9°C° 0 mm 2 mps 669 mmHg 39%
    12:00 +10°C° 0 mm 3 mps 669 mmHg 36%
    13:00 +11°C° 0 mm 3 mps 669 mmHg 33%
    14:00 +9°C° 0 mm 3 mps 668 mmHg 37%
    15:00 +8°C° 0 mm 3 mps 668 mmHg 42%
    16:00 +6°C° 0 mm 2 mps 667 mmHg 46%
    17:00 +5°C° 0 mm 2 mps 667 mmHg 49%
    18:00 +4°C° 0 mm 2 mps 667 mmHg 52%
    19:00 +3°C° 0 mm 2 mps 667 mmHg 56%
    20:00 +3°C° 0 mm 2 mps 667 mmHg 56%
    21:00 +3°C° 0 mm 2 mps 667 mmHg 55%
    22:00 +3°C° 0 mm 2 mps 667 mmHg 55%
    23:00 +3°C° 0 mm 2 mps 667 mmHg 56%

    24 November, Sunday

    Time Temperature Precipitation Wind Pressure Humidity
    00:00 +2°C° 0 mm 3 mps 667 mmHg 56%
    01:00 +2°C° 0 mm 3 mps 667 mmHg 56%
    02:00 +2°C° 0 mm 3 mps 667 mmHg 54%
    03:00 +2°C° 0 mm 3 mps 666 mmHg 52%
    04:00 +3°C° 0 mm 3 mps 666 mmHg 50%
    05:00 +3°C° 0 mm 3 mps 666 mmHg 48%
    06:00 +3°C° 0 mm 3 mps 666 mmHg 47%
    07:00 +3°C° 0 mm 3 mps 666 mmHg 45%
    08:00 +7°C° 0 mm 3 mps 667 mmHg 41%
    09:00 +8°C° 0 mm 4 mps 667 mmHg 36%
    10:00 +11°C° 0 mm 4 mps 667 mmHg 32%
    11:00 +12°C° 0 mm 5 mps 667 mmHg 31%
    12:00 +11°C° 0 mm 6 mps 666 mmHg 30%
    13:00 +12°C° 0 mm 8 mps 665 mmHg 30%
    14:00 +11°C° 0 mm 6 mps 665 mmHg 33%
    15:00 +10°C° 0 mm 5 mps 664 mmHg 36%
    16:00 +8°C° 0 mm 4 mps 663 mmHg 40%
    17:00 +8°C° 0 mm 4 mps 663 mmHg 43%
    18:00 +7°C° 0 mm 4 mps 663 mmHg 45%
    19:00 +6°C° 0 mm 4 mps 662 mmHg 48%
    20:00 +6°C° 0.3 mm 5 mps 662 mmHg 58%
    21:00 +5°C° 0.3 mm 6 mps 662 mmHg 68%
    22:00 +4°C° 0.3 mm 7 mps 662 mmHg 78%
    23:00 +3°C° 0.9 mm 7 mps 662 mmHg 80%

    25 November, Monday

    Time Temperature Precipitation Wind Pressure Humidity
    00:00 +2°C° 0.9 mm 7 mps 661 mmHg 81%
    01:00 0°C° 0.9 mm 8 mps 661 mmHg 82%
    02:00 0°C° 0.3 mm 7 mps 660 mmHg 82%
    03:00 0°C° 0.3 mm 7 mps 660 mmHg 82%
    04:00 -1°C° 0.3 mm 6 mps 660 mmHg 81%
    05:00 -1°C° 0.1 mm 7 mps 660 mmHg 77%
    06:00 -2°C° 0.1 mm 8 mps 660 mmHg 72%
    07:00 -4°C° 0.1 mm 8 mps 661 mmHg 68%
    08:00 -3°C° 0 mm 9 mps 661 mmHg 65%
    09:00 -2°C° 0 mm 10 mps 661 mmHg 62%
    10:00 -1°C° 0 mm 11 mps 661 mmHg 59%
    11:00 -1°C° 0 mm 11 mps 661 mmHg 54%
    12:00 +1°C° 0 mm 11 mps 661 mmHg 49%
    13:00 +1°C° 0 mm 11 mps 661 mmHg 45%
    14:00 0°C° 0 mm 10 mps 661 mmHg 44%
    15:00 0°C° 0 mm 9 mps 660 mmHg 44%
    16:00 -1°C° 0 mm 8 mps 660 mmHg 43%
    17:00 -2°C° 0 mm 7 mps 661 mmHg 48%
    18:00 -3°C° 0 mm 6 mps 661 mmHg 53%
    19:00 -4°C° 0 mm 5 mps 661 mmHg 57%
    20:00 -4°C° 0 mm 5 mps 661 mmHg 58%
    21:00 -4°C° 0 mm 6 mps 661 mmHg 59%
    22:00 -6°C° 0 mm 7 mps 661 mmHg 60%
    23:00 -6°C° 0 mm 7 mps 662 mmHg 63%

    26 November, Tuesday

    Time Temperature Precipitation Wind Pressure Humidity
    00:00 -6°C° 0 mm 7 mps 662 mmHg 66%
    01:00 -7°C° 0 mm 8 mps 662 mmHg 69%
    02:00 -7°C° 0 mm 7 mps 662 mmHg 71%
    03:00 -6°C° 0 mm 6 mps 662 mmHg 73%
    04:00 -8°C° 0 mm 6 mps 662 mmHg 75%
    05:00 -7°C° 0 mm 5 mps 662 mmHg 76%
    06:00 -7°C° 0 mm 5 mps 662 mmHg 77%
    07:00 -8°C° 0 mm 4 mps 662 mmHg 78%
    08:00 -6°C° 0 mm 5 mps 662 mmHg 70%
    09:00 -4°C° 0 mm 5 mps 663 mmHg 61%
    10:00 -3°C° 0 mm 6 mps 663 mmHg 52%
    11:00 -1°C° 0 mm 5 mps 662 mmHg 49%
    12:00 -1°C° 0 mm 4 mps 662 mmHg 45%
    13:00 0°C° 0 mm 4 mps 661 mmHg 42%
    14:00 0°C° 0 mm 3 mps 660 mmHg 46%
    15:00 -2°C° 0 mm 2 mps 660 mmHg 50%
    16:00 -1°C° 0 mm 1 mps 659 mmHg 54%
    17:00 -3°C° 0 mm 2 mps 659 mmHg 57%
    18:00 -3°C° 0 mm 2 mps 659 mmHg 59%
    19:00 -4°C° 0 mm 2 mps 659 mmHg 61%
    20:00 -5°C° 0 mm 3 mps 659 mmHg 59%
    21:00 -5°C° 0 mm 3 mps 659 mmHg 57%
    22:00 -5°C° 0 mm 4 mps 658 mmHg 55%
    23:00 -5°C° 0 mm 5 mps 658 mmHg 54%
    Show more